Location: Oakley
(37.9974°N, 121.7125°W)
Time: 05:51:06
(UTC+00:00)

IRS-1D - Pass Details

Date: 13 February 2026
Orbit: 736 x 811 km, 98.8° (Epoch: 5 March)

Event Time Altitude Azimuth Distance (km) Brightness Sun altitude
Rises 13:41:11 0° 7° (N) 3,295 6.8 -15.9°
Reaches altitude 10° 13:43:34 10° 3° (N) 2,351 6.0 -15.4°
Maximum altitude 13:48:35 52° 288° (WNW) 960 3.6 -14.4°
Drops below altitude 10° 13:53:28 10° 213° (SSW) 2,289 5.7 -13.5°
Sets 13:55:46 0° 209° (SSW) 3,199 6.5 -13.0°
